Location: Fort Wayne
(41.1310°N, 85.1290°W)
Time: 20:29:13
(UTC-04:00)

Courier 1B Rocket - All Passes

Search period start: 27 March 2017 00:00
Search period end: 06 April 2017 00:00
Orbit: 920 x 1202 km, 28.2° (Epoch: 26 March)

Date Brightness Start Highest point End Pass type
(mag) Time Alt. Az. Time Alt. Az. Time Alt. Az.
27 Mar - 02:52:24 10° SSW 02:56:35 17° SSE 03:00:37 10° SE night (unlit)
27 Mar - 04:43:59 10° SW 04:49:06 25° S 04:54:06 10° SE visible
27 Mar - 06:37:00 10° WSW 06:41:38 21° S 06:46:13 10° SE visible
27 Mar - 08:32:49 10° SW 08:33:58 10° SSW 08:35:07 10° SSW daylight
28 Mar - 01:52:30 10° S 01:55:51 14° SSE 01:59:07 10° SE night (unlit)
28 Mar - 03:43:15 10° SW 03:48:23 24° S 03:53:19 10° ESE visible
28 Mar - 05:35:56 10° WSW 05:40:57 24° S 05:45:49 10° SE visible
28 Mar - 07:30:08 10° SW 07:33:21 14° SSW 07:36:32 10° S daylight
29 Mar - 00:53:47 10° SSE 00:55:07 11° SSE 00:56:27 10° SE night (unlit)
29 Mar - 02:42:38 10° SW 02:47:38 22° SSE 02:52:24 10° ESE night (unlit)
29 Mar - 04:34:56 10° SW 04:40:14 26° S 04:45:18 10° SE visible
29 Mar - 06:28:32 10° WSW 06:32:42 18° SSW 06:36:48 10° SSE visible
30 Mar - 01:42:13 10° SSW 01:46:51 19° SSE 01:51:19 10° ESE night (unlit)
30 Mar - 03:34:01 10° SW 03:39:28 26° S 03:44:40 10° ESE visible
30 Mar - 05:27:13 10° WSW 05:32:02 22° SSW 05:36:42 10° SE visible
30 Mar - 07:23:27 10° SSW 07:24:20 10° SSW 07:25:13 10° SSW daylight
31 Mar - 00:42:08 10° SSW 00:46:05 15° SSE 00:49:53 10° SE night (unlit)
31 Mar - 02:33:10 10° SW 02:38:41 25° S 02:43:55 10° ESE night (unlit)
31 Mar - 04:26:01 10° WSW 04:31:18 25° S 04:36:22 10° SE visible
31 Mar - 06:20:25 10° SW 06:23:43 14° SSW 06:26:58 10° S visible
31 Mar - 23:42:49 10° S 23:45:17 12° SSE 23:47:43 10° SE night (unlit)
01 Apr - 01:32:27 10° SW 01:37:52 23° SSE 01:43:01 10° ESE night (unlit)
01 Apr - 03:24:55 10° WSW 03:30:33 27° S 03:35:53 10° SE visible
01 Apr - 05:18:40 10° WSW 05:23:04 19° SSW 05:27:19 10° SSE visible
02 Apr - 00:31:56 10° SSW 00:37:02 20° SSE 00:41:56 10° ESE night (unlit)
02 Apr - 02:23:54 10° SW 02:29:45 27° S 02:35:15 10° ESE night (unlit)
02 Apr - 04:17:14 10° WSW 04:22:22 23° SSW 04:27:15 10° SE visible
02 Apr - 06:13:28 10° SW 06:14:41 11° SSW 06:15:53 10° SSW visible
02 Apr - 23:31:44 10° SSW 23:36:12 17° SSE 23:40:31 10° ESE night (unlit)
03 Apr - 01:22:59 10° SW 01:28:53 27° S 01:34:29 10° ESE night (unlit)
03 Apr - 03:15:58 10° WSW 03:21:36 26° S 03:26:56 10° SE night (unlit)
03 Apr - 05:10:28 10° SW 05:14:03 15° SSW 05:17:32 10° S visible
03 Apr - 22:32:11 10° S 22:35:22 13° SSE 22:38:29 10° SE visible
04 Apr - 00:22:12 10° SW 00:28:01 25° SSE 00:33:34 10° ESE night (unlit)
04 Apr - 02:14:47 10° WSW 02:20:47 28° S 02:26:26 10° SE night (unlit)
04 Apr - 04:08:38 10° WSW 04:13:22 20° SSW 04:17:54 10° SSE visible
04 Apr - 23:21:38 10° SSW 23:27:08 22° SSE 23:32:25 10° ESE visible
05 Apr - 01:13:42 10° SW 01:19:55 29° S 01:25:46 10° ESE night (unlit)
05 Apr - 03:07:08 10° WSW 03:12:37 24° SSW 03:17:49 10° SE night (unlit)
05 Apr - 05:03:09 10° SW 05:04:58 11° SSW 05:06:45 10° S visible
05 Apr - 22:21:23 10° SSW 22:26:14 18° SSE 22:30:58 10° ESE visible
